FW4361 Weather Reports


time (UTC)temp
F
wind
direction
speed
knots
gust
knots
rain 1hr
in
rain 24hr
in
rain mn
in
humidity
%
barometer
mb
20260505011547 46 238 4.3 13.9 0.00 0.51 0.13 79 1009.9
20260505010049 46 223 4.3 13.9 0.00 0.51 0.13 80 1009.9
20260505004555 46 236 7.0 12.2 0.00 0.77 0.13 81 1009.7
20260505003047 46 247 7.0 15.6 0.00 0.77 0.13 80 1009.6
20260505001554 46 263 6.1 14.8 0.00 0.77 0.13 80 1009.4
20260505000106 47 229 6.1 18.2 0.00 0.77 0.13 79 1009.1
20260504234552 47 238 7.0 20.9 0.00 0.92 0.13 78 1008.7
20260504233055 47 182 7.8 19.1 0.00 0.92 0.13 78 1008.2
20260504231550 47 215 11.3 26.1 0.00 0.92 0.13 78 1007.8
20260504230104 48 196 9.6 20.0 0.00 0.92 0.13 78 1007.8
20260504224552 49 176 9.6 23.5 0.00 0.93 0.13 77 1007.6
20260504223049 49 191 8.7 17.4 0.00 0.93 0.13 77 1007.4
20260504221557 49 227 10.4 20.9 0.00 0.93 0.13 77 1007.6
20260504220055 50 224 8.7 22.6 0.00 0.93 0.13 76 1007.3
20260504214548 51 229 7.8 20.0 0.00 0.93 0.13 75 1007.5
20260504213046 50 197 7.8 18.2 0.00 0.93 0.13 77 1007.5
20260504211550 50 180 9.6 20.0 0.00 0.93 0.13 77 1007.5
20260504210051 50 164 8.7 19.1 0.00 0.93 0.13 77 1007.7
20260504204549 50 205 8.7 23.5 0.00 0.96 0.13 77 1007.7
20260504203101 49 196 8.7 19.1 0.00 0.96 0.13 78 1007.9
20260504201554 50 154 7.8 19.1 0.00 0.96 0.13 78 1008.0
20260504200053 51 156 5.2 13.9 0.00 0.96 0.13 76 1008.1
20260504194552 51 219 7.0 20.9 0.00 1.08 0.13 75 1007.8
20260504193049 52 212 10.4 19.1 0.00 1.08 0.13 73 1007.6
20260504191600 53 209 7.0 19.1 0.00 1.08 0.13 72 1007.5
20260504190046 53 218 10.4 17.4 0.00 1.08 0.13 73 1007.4
20260504184550 53 213 9.6 20.0 0.00 1.20 0.13 72 1007.4
20260504183047 52 207 8.7 18.2 0.00 1.20 0.13 73 1007.4
20260504181555 53 201 7.8 20.9 0.00 1.20 0.13 71 1007.5
20260504180050 52 235 7.8 19.1 0.00 1.20 0.13 71 1007.5
20260504174550 53 214 6.1 15.6 0.00 1.29 0.13 71 1007.5
20260504173055 53 229 6.1 15.6 0.00 1.29 0.13 71 1007.4
20260504171551 54 172 6.1 16.5 0.00 1.29 0.13 68 1007.6
20260504081550 40 250 6.1 16.5 0.00 2.11 0.13 80 1004.3
20260504050105 41 290 8.7 20.0 0.02 2.11 0.13 91 1001.6
20260504044552 41 221 12.2 25.2 0.03 2.11 0.13 92 1001.3
20260504043055 41 278 9.6 20.9 0.06 2.11 0.13 93 1001.4
20260504041549 41 289 9.6 20.9 0.09 2.10 0.12 93 1001.3
20260504040054 41 259 10.4 20.0 0.11 2.08 0.11 94 1001.0
20260504034549 41 246 7.8 23.5 0.12 2.07 0.09 94 1000.9
20260504033052 40 225 8.7 20.0 0.14 2.04 0.07 94 1000.8
20260504031550 40 327 10.4 23.5 0.14 2.00 0.03 94 1000.5
20260504030052 40 339 7.8 20.0 0.15 1.97 0.00 94 1000.2
20260504024607 40 269 9.6 16.5 0.17 1.94 1.94 94 999.8
20260504023053 40 356 9.6 19.1 0.18 1.90 1.90 94 999.6
20260504021550 40 301 8.7 18.2 0.19 1.86 1.86 94 999.3
20260504020047 39 352 9.6 22.6 0.21 1.81 1.81 94 999.3
20260504014548 39 272 6.1 21.7 0.24 1.77 1.77 94 999.0
20260504013045 39 310 7.0 17.4 0.25 1.72 1.72 94 998.8